This is the latest recevied weather packets stored in our database for station/object K8JCL-13. If no packets are shown the sender has not sent any weather packets the latest 1 day(s).
| Time | Temp. | Humidity | Pressure | Rain* | Wind** | Luminosity | Snow |
|---|---|---|---|---|---|---|---|
| 1778010415 | 17.78° C | 88% | 1008.7 hPa | 1.27 mm | 0.45 m/s, 357° | 48 W/m² | - |
| 1778010111 | 17.78° C | 84% | 1008.7 hPa | 0 mm | 0.45 m/s, 247° | 24 W/m² | - |
| 1778009808 | 17.78° C | 81% | 1008.5 hPa | 0 mm | 0.45 m/s, 38° | 21 W/m² | - |
| 1778009505 | 17.78° C | 83% | 1008.4 hPa | 0 mm | 0 m/s | 22 W/m² | - |
| 1778009204 | 18.33° C | 81% | 1008.4 hPa | 0 mm | 0.45 m/s, 253° | 23 W/m² | - |
| 1778008901 | 18.33° C | 81% | 1008.4 hPa | 0 mm | 0 m/s | 24 W/m² | - |
| 1778008599 | 18.33° C | 81% | 1008.5 hPa | 0 mm | 0 m/s | 33 W/m² | - |
| 1778008297 | 18.89° C | 79% | 1008.5 hPa | 0 mm | 0 m/s | 31 W/m² | - |
| 1778007993 | 18.89° C | 80% | 1008.4 hPa | 0 mm | 0 m/s | 42 W/m² | - |
| 1778007687 | 19.44° C | 78% | 1008.5 hPa | 0 mm | 0 m/s | 56 W/m² | - |
| 1778007385 | 19.44° C | 78% | 1008.7 hPa | 0 mm | 0 m/s | 73 W/m² | - |
| 1778007081 | 18.89° C | 79% | 1008.7 hPa | 0 mm | 0 m/s | 176 W/m² | - |
| 1778006777 | 18.89° C | 79% | 1008.7 hPa | 0 mm | 0 m/s | 107 W/m² | - |
| 1778006474 | 18.89° C | 78% | 1008.9 hPa | 0 mm | 0 m/s | 118 W/m² | - |
| 1778006171 | 18.89° C | 77% | 1008.9 hPa | 0 mm | 0 m/s | 83 W/m² | - |
| 1778005869 | 19.44° C | 76% | 1008.6 hPa | 0 mm | 0 m/s | 46 W/m² | - |
| 1778005565 | 19.44° C | 75% | 1008.9 hPa | 0 mm | 0.45 m/s, 58° | 107 W/m² | - |
| 1778005262 | 20° C | 76% | 1008.9 hPa | 0 mm | 0 m/s | 139 W/m² | - |
| 1778004958 | 19.44° C | 75% | 1009 hPa | 0 mm | 0 m/s | 173 W/m² | - |
| 1778004656 | 19.44° C | 76% | 1009 hPa | 0 mm | 0 m/s | 184 W/m² | - |
| 1778004351 | 19.44° C | 76% | 1009.2 hPa | 0 mm | 0 m/s | 163 W/m² | - |
| 1778004049 | 19.44° C | 76% | 1009.1 hPa | 0 mm | 0 m/s | 176 W/m² | - |
| 1778003744 | 19.44° C | 76% | 1009.1 hPa | 0 mm | 0 m/s | 177 W/m² | - |
| 1778003441 | 18.89° C | 78% | 1009.2 hPa | 0 mm | 0 m/s | 220 W/m² | - |
| 1778003138 | 18.33° C | 79% | 1009.2 hPa | 0 mm | 0 m/s | 84 W/m² | - |
* Rain latest hour (hover to see other rain measurements)
** Current wind speed in m/s (hover to see current wind gust speed)